Weather History for KHRX - March, 2013

Change the Weather History Date:

Thursday, March 21, 2013

  Actual Average (KAMA) Record (KAMA)
Temperature  
Mean Temperature 61 °F 49 °F  
Max Temperature 78 °F 64 °F 92 °F (1907)
Min Temperature 45 °F 35 °F 10 °F (1913)
Degree Days  
Heating Degree Days 4 16  
Month to date heating degree days 388  
Since 1 July heating degree days 3665  
Cooling Degree Days 0 0  
Month to date cooling degree days 0  
Year to date cooling degree days 0  
Growing Degree Days 11 (Base 50)    
Moisture  
Dew Point 28 °F    
Average Humidity 34    
Maximum Humidity 60    
Minimum Humidity 11    
Precipitation  
Precipitation 0.00 in 0.05 in 0.39 in (1979)
Month to date precipitation 0.89  
Year to date precipitation 2.17  
Snow  
Snow 0.00 in 0.10 in 1.70 in (1921)
Month to date snowfall 2.0  
Since 1 July snowfall 16.0  
Snow Depth -    
Sea Level Pressure  
Sea Level Pressure 29.64 in    
Wind  
Wind Speed 16 mph (West)    
Max Wind Speed 28 mph    
Max Gust Speed 33 mph    
Visibility 10 miles    
Events      
T = Trace of Precipitation, MM = Missing Value Source: NWS Daily Summary

Daily Weather History Graph

Daily Weather History Graph

Search for Another Location

Airport or City:

Trip Planner

Search our weather history database for the weather conditions in past years. The results will help you decide how hot, cold, wet, or windy it might be!

Date:

Astronomy

Mar. 21, 2013 Rise Set
Actual Time 7:51 AM CDT 8:02 PM CDT
Civil Twilight 7:25 AM CDT 8:27 PM CDT
Nautical Twilight 6:56 AM CDT 8:56 PM CDT
Astronomical Twilight 6:26 AM CDT 9:26 PM CDT
Moon 2:45 PM CDT (3/21) 4:02 AM CDT (3/21)
Length of Visible Light 13h 01m
Length of Day
12h 10m
Waxing Gibbous, 69% of the Moon is Illuminated
Mar 21
Waxing Gibbous
Mar 27
Full
Apr 2
Last Quarter
Apr 10
New
Apr 18
First Quarter

Hourly Weather History & Observations

Time (CDT) Temp. Windchill Dew Point Humidity Pressure Visibility Wind Dir Wind Speed Gust Speed Precip Events Conditions
12:15 AM 54.5 °F - 25.7 °F 33% 29.88 in 10.0 mi SSW 17.3 mph - N/A   Clear
12:35 AM 54.3 °F - 26.1 °F 34% 29.87 in 10.0 mi SW 17.3 mph 23.0 mph N/A   Clear
1:15 AM 53.6 °F - 26.6 °F 35% 29.85 in 10.0 mi SSW 21.9 mph 27.6 mph N/A   Scattered Clouds
1:35 AM 53.1 °F - 27.7 °F 38% 29.84 in 10.0 mi SSW 17.3 mph 25.3 mph N/A   Scattered Clouds
1:55 AM 52.7 °F - 28.6 °F 40% 29.82 in 10.0 mi SSW 17.3 mph 24.2 mph N/A   Scattered Clouds
2:15 AM 52.7 °F - 29.3 °F 41% 29.82 in 10.0 mi SW 19.6 mph 24.2 mph N/A   Clear
2:35 AM 52.0 °F - 30.4 °F 44% 29.81 in 10.0 mi SW 17.3 mph 23.0 mph N/A   Clear
2:55 AM 51.8 °F - 30.9 °F 45% 29.80 in 10.0 mi SW 16.1 mph 24.2 mph N/A   Clear
3:15 AM 49.6 °F - 31.1 °F 49% 29.79 in 10.0 mi SSW 10.4 mph - N/A   Clear
3:35 AM 49.6 °F - 31.8 °F 50% 29.79 in 10.0 mi SW 12.7 mph - N/A   Clear
3:55 AM 50.0 °F - 32.0 °F 50% 29.77 in 10.0 mi SW 13.8 mph 19.6 mph N/A   Clear
4:15 AM 49.6 °F - 32.0 °F 51% 29.76 in 10.0 mi SSW 13.8 mph - N/A   Clear
4:35 AM 49.6 °F - 32.5 °F 52% 29.74 in 10.0 mi SW 15.0 mph 20.7 mph N/A   Clear
4:55 AM 48.4 °F - 32.5 °F 54% 29.73 in 10.0 mi SW 10.4 mph - N/A   Clear
5:15 AM 47.8 °F - 33.3 °F 57% 29.72 in 10.0 mi WSW 12.7 mph - N/A   Clear
5:35 AM 48.6 °F - 34.0 °F 57% 29.71 in 10.0 mi SW 15.0 mph 19.6 mph N/A   Clear
5:55 AM 48.7 °F - 34.7 °F 58% 29.69 in 10.0 mi SW 15.0 mph - N/A   Clear
6:15 AM 48.2 °F - 34.7 °F 60% 29.69 in 10.0 mi SW 13.8 mph - N/A   Clear
6:35 AM 49.3 °F - 35.2 °F 58% 29.68 in 10.0 mi SW 13.8 mph - N/A   Clear
6:55 AM 49.6 °F - 35.6 °F 59% 29.67 in 10.0 mi SW 17.3 mph - N/A   Clear
7:15 AM 49.5 °F - 35.6 °F 59% 29.67 in 10.0 mi WSW 15.0 mph 19.6 mph N/A   Clear
7:55 AM 50.4 °F - 34.9 °F 55% 29.67 in 10.0 mi WSW 17.3 mph - N/A   Clear
8:15 AM 49.6 °F - 34.9 °F 57% 29.67 in 10.0 mi West 13.8 mph - N/A   Clear
8:35 AM 50.0 °F - 34.7 °F 56% 29.67 in 10.0 mi West 12.7 mph - N/A   Clear
8:55 AM 50.2 °F - 34.7 °F 55% 29.67 in 10.0 mi WSW 11.5 mph - N/A   Clear
9:15 AM 50.9 °F - 34.7 °F 54% 29.67 in 10.0 mi WSW 12.7 mph - N/A   Clear
9:35 AM 51.8 °F - 34.0 °F 51% 29.67 in 10.0 mi West 12.7 mph - N/A   Clear
9:55 AM 53.4 °F - 33.3 °F 46% 29.66 in 10.0 mi West 13.8 mph - N/A   Clear
10:15 AM 55.9 °F - 33.1 °F 42% 29.66 in 10.0 mi West 13.8 mph - N/A   Clear
10:35 AM 58.5 °F - 32.7 °F 38% 29.66 in 10.0 mi West 11.5 mph - N/A   Clear
10:55 AM 61.5 °F - 32.4 °F 33% 29.66 in 10.0 mi WNW 13.8 mph - N/A   Clear
11:35 AM 66.2 °F - 31.1 °F 27% 29.64 in 10.0 mi NW 17.3 mph 21.9 mph N/A   Clear
11:55 AM 67.1 °F - 30.2 °F 25% 29.63 in 10.0 mi NW 19.6 mph 23.0 mph N/A   Clear
12:15 PM 67.5 °F - 30.0 °F 25% 29.62 in 10.0 mi NW 17.3 mph 24.2 mph N/A   Clear
12:35 PM 67.3 °F - 29.3 °F 24% 29.62 in 10.0 mi NW 13.8 mph - N/A   Clear
12:55 PM 68.0 °F - 29.5 °F 24% 29.62 in 10.0 mi NW 11.5 mph - N/A   Clear
1:15 PM 70.5 °F - 28.9 °F 21% 29.61 in 10.0 mi NW 12.7 mph 18.4 mph N/A   Clear
1:35 PM 73.4 °F - 28.0 °F 19% 29.60 in 10.0 mi West 19.6 mph 24.2 mph N/A   Clear
1:55 PM 73.4 °F - 27.0 °F 18% 29.58 in 10.0 mi West 16.1 mph 26.5 mph N/A   Clear
2:15 PM 73.9 °F - 26.8 °F 17% 29.58 in 10.0 mi West 16.1 mph 31.1 mph N/A   Clear
2:35 PM 74.3 °F - 26.6 °F 17% 29.56 in 10.0 mi West 11.5 mph 23.0 mph N/A   Clear
2:55 PM 75.6 °F - 24.1 °F 15% 29.54 in 10.0 mi West 17.3 mph 25.3 mph N/A   Clear
3:15 PM 74.8 °F - 23.9 °F 15% 29.53 in 10.0 mi NW 17.3 mph 20.7 mph N/A   Scattered Clouds
3:35 PM 76.6 °F - 24.1 °F 14% 29.52 in 10.0 mi West 15.0 mph 32.2 mph N/A   Scattered Clouds
3:55 PM 76.5 °F - 24.3 °F 14% 29.51 in 10.0 mi WNW 19.6 mph 27.6 mph N/A   Clear
4:15 PM 76.8 °F - 25.3 °F 15% 29.49 in 10.0 mi West 11.5 mph - N/A   Scattered Clouds
4:35 PM 77.5 °F - 24.8 °F 14% 29.49 in 10.0 mi West 18.4 mph 26.5 mph N/A   Scattered Clouds
4:55 PM 75.7 °F - 25.3 °F 15% 29.49 in 10.0 mi NNW 18.4 mph 21.9 mph N/A   Mostly Cloudy
5:15 PM 76.8 °F - 23.2 °F 14% 29.48 in 10.0 mi NW 10.4 mph 17.3 mph N/A   Mostly Cloudy
5:35 PM 77.7 °F - 21.7 °F 12% 29.49 in 10.0 mi WNW 21.9 mph 27.6 mph N/A   Scattered Clouds
5:55 PM 77.7 °F - 19.6 °F 11% 29.49 in 10.0 mi West 25.3 mph 33.4 mph N/A   Clear
6:15 PM 77.2 °F - 18.1 °F 11% 29.49 in 10.0 mi West 25.3 mph 32.2 mph N/A   Clear
6:35 PM 76.1 °F - 18.3 °F 11% 29.49 in 10.0 mi WNW 27.6 mph 32.2 mph N/A   Clear
6:55 PM 75.4 °F - 17.6 °F 11% 29.49 in 10.0 mi WNW 20.7 mph 28.8 mph N/A   Clear
7:15 PM 73.9 °F - 18.3 °F 12% 29.51 in 10.0 mi West 15.0 mph 25.3 mph N/A   Clear
7:35 PM 71.8 °F - 17.2 °F 13% 29.51 in 10.0 mi West 17.3 mph - N/A   Clear
7:55 PM 69.4 °F - 15.4 °F 13% 29.51 in 10.0 mi West 12.7 mph - N/A   Clear
8:15 PM 64.0 °F - 15.6 °F 15% 29.51 in 10.0 mi West 10.4 mph - N/A   Clear
8:35 PM 60.8 °F - 15.8 °F 17% 29.52 in 10.0 mi West 9.2 mph - N/A   Clear
8:55 PM 61.2 °F - 13.5 °F 16% 29.53 in 10.0 mi WNW 10.4 mph 17.3 mph N/A   Clear
9:15 PM 59.5 °F - 15.4 °F 18% 29.56 in 10.0 mi North 15.0 mph 18.4 mph N/A   Clear
9:35 PM 56.8 °F - 21.4 °F 25% 29.57 in 10.0 mi North 10.4 mph - N/A   Clear
9:55 PM 53.1 °F - 24.6 °F 33% 29.59 in 10.0 mi North 6.9 mph - N/A   Clear
10:15 PM 54.1 °F - 27.7 °F 36% 29.60 in 10.0 mi NE 16.1 mph 19.6 mph N/A   Clear
10:35 PM 52.9 °F - 27.9 °F 38% 29.61 in 10.0 mi NNW 9.2 mph - N/A   Clear
10:55 PM 48.0 °F - 28.2 °F 46% 29.62 in 10.0 mi North 6.9 mph - N/A   Clear
11:15 PM 45.9 °F 40.8 °F 27.5 °F 49% 29.63 in 10.0 mi North 10.4 mph - N/A   Clear
11:35 PM 46.6 °F - 28.2 °F 49% 29.65 in 10.0 mi NNW 10.4 mph - N/A   Clear
11:55 PM 47.1 °F - 28.8 °F 49% 29.66 in 10.0 mi NNW 12.7 mph - N/A   Clear